Flag for Germany Weather past 2 weeks in Walsrode, Lower Saxony, Germany

Now
50 °F

Fog.


Feels Like: 46 °F
Forecast: 49 / 63 °F
Wind: 9 mph from West

Location: Fassberg

Current Time: Aug 23, 2014 at 8:28:35 AM

Latest Report: Aug 23, 2014 at 7:20 AM


Visibility: 3 mi

Pressure: 29.86 "Hg

Humidity: 94%

Dew point: 48 °F

Location of WalsrodeLocation

Historic Weather in Walsrode — Graph

°F

Walsrode temperature yesterday

Maximum temperature yesterday: 66 °F (at 3:20 PM)
Minimum temperature yesterday: 50 °F (at 1:20 AM)
Average temperature yesterday: 58 °F

Past Weeks' High & Low Weather Summary

 TemperatureHumidityPressure
High77 °F (Aug 8, 3:20 PM)100% (Aug 16, 2:20 AM)30.01 "Hg (Aug 16, 2:20 AM)
Low43 °F (Aug 21, 1:20 AM)40% (Aug 11, 7:20 PM)29.56 "Hg (Aug 18, 9:20 AM)
Average60 °F75%29.82 "Hg
* Reported Aug 8 7:20 AM — Aug 23 7:20 AM, Walsrode, Weather by CustomWeather, © 2014

Note: Actual official high and low records may vary slightly from our data, if they occured in-between our weather recording intervals... More about our weather records

Advertising

Walsrode weather history for previous 24 hours

 ConditionsComfort  
Time TempWeatherWind HumidityBarometerVisibility
7:20 AM
Aug 23
50 °FFog.9 mph94%29.86 "Hg3 mi
6:20 AM50 °FFog.9 mph100%29.86 "Hg3 mi
5:20 AM50 °FPassing clouds.7 mph100%29.83 "Hg4 mi
4:20 AM50 °FPassing clouds.7 mph94%29.86 "Hg4 mi
3:20 AM50 °FPassing clouds.7 mph94%29.83 "HgN/A
2:20 AM50 °FPassing clouds.7 mph94%29.83 "HgN/A
1:20 AM50 °FPassing clouds.7 mph94%29.83 "HgN/A
12:20 AM50 °FPassing clouds.5 mph94%29.86 "HgN/A
11:20 PM
Aug 22
54 °FPartly cloudy.7 mph94%29.83 "HgN/A
10:20 PM55 °FPassing clouds.9 mph88%29.83 "HgN/A
9:20 PM55 °FLight rain. Broken clouds.14 mph88%29.83 "HgN/A
8:20 PM55 °FLight rain. Broken clouds.12 mph88%29.83 "HgN/A
7:20 PM59 °FLight rain. Broken clouds.6 mph77%29.83 "HgN/A
6:20 PM59 °FPartly sunny.6 mph82%29.83 "HgN/A
5:20 PM64 °FPartly sunny.8 mph52%29.83 "HgN/A
4:20 PM66 °FBroken clouds.18 mph46%29.83 "HgN/A
3:20 PM66 °FBroken clouds.17 mph46%29.83 "HgN/A
2:20 PM64 °FBroken clouds.16 mph52%29.86 "HgN/A
1:20 PM64 °FBroken clouds.15 mph52%29.86 "HgN/A
12:20 PM63 °FBroken clouds.18 mph52%29.86 "HgN/A
12:00 PM64 °FBroken clouds.20 mph49%29.86 "HgN/A
11:20 AM63 °FBroken clouds.17 mph52%29.86 "HgN/A
10:20 AM61 °FBroken clouds.15 mph63%29.89 "HgN/A
9:20 AM57 °FPartly sunny.10 mph72%29.89 "HgN/A
8:20 AM54 °FPartly sunny.10 mph77%29.89 "HgN/A
Weather by CustomWeather, © 2014

See weather overviewHow to use our weather pages